Flag for U.S.A. Weather past 2 weeks in Vancouver, Washington, U.S.A.

Now
52 °F

Passing clouds.


Feels Like: 52 °F
Forecast: 50 / 60 °F
Wind: No wind

Location: Vancouver - Pearson Airpark

Current Time: Oct 24, 2014 at 9:17:07 PM

Latest Report: Oct 24, 2014 at 8:53 PM


Visibility: 10 mi

Pressure: 29.76 "Hg

Humidity: 93%

Dew point: 50 °F

Location of VancouverLocation

Historic Weather in Vancouver — Graph

°F

Vancouver temperature yesterday

Maximum temperature yesterday: 59 °F (at 11:53 AM)
Minimum temperature yesterday: 53 °F (at 9:53 PM)
Average temperature yesterday: 55 °F

Past Weeks' High & Low Weather Summary

 TemperatureHumidityPressure
High73 °F (Oct 13, 4:53 PM)100% (Oct 10, 4:53 AM)30.29 "Hg (Oct 10, 4:53 AM)
Low47 °F (Oct 13, 7:53 AM)37% (Oct 13, 3:53 PM)29.54 "Hg (Oct 15, 1:53 AM)
Average58 °F80%29.90 "Hg
* Reported Oct 9 7:53 PM — Oct 24 7:53 PM, Vancouver, Weather by CustomWeather, © 2014

Note: Actual official high and low records may vary slightly from our data, if they occured in-between our weather recording intervals... More about our weather records

Advertising

Vancouver weather history for previous 24 hours

 ConditionsComfort  
Time TempWeatherWind HumidityBarometerVisibility
7:53 PM
Oct 24
52 °FPassing clouds.No wind97%29.78 "Hg10 mi
6:53 PM54 °FMostly cloudy.No wind86%29.79 "Hg10 mi
5:53 PM54 °FLight rain. Overcast.5 mph83%29.81 "Hg8 mi
4:53 PM55 °FLight rain. Fog.No wind87%29.83 "Hg4 mi
3:53 PM55 °FLight rain. Fog.3 mph90%29.86 "Hg6 mi
2:53 PM55 °FLight rain. Overcast.No wind87%29.89 "Hg9 mi
1:53 PM54 °FOvercast.5 mph86%29.91 "Hg10 mi
12:53 PM55 °FPassing clouds.No wind83%29.93 "Hg10 mi
11:53 AM53 °FSunny.7 mph86%29.96 "Hg10 mi
10:53 AM53 °FSunny.3 mph86%29.98 "Hg10 mi
9:53 AM53 °FSunny.3 mph86%29.98 "Hg10 mi
8:53 AM51 °FSunny.No wind92%30.01 "Hg10 mi
7:53 AM51 °FPassing clouds.No wind89%30.01 "Hg10 mi
6:53 AM50 °FLow clouds.No wind93%30.02 "Hg10 mi
5:53 AM52 °FPassing clouds.No wind89%30.01 "Hg10 mi
4:53 AM51 °FPassing clouds.No wind92%30.02 "Hg10 mi
3:53 AM52 °FMostly cloudy.5 mph89%30.03 "Hg10 mi
2:53 AM52 °FPassing clouds.3 mph89%30.03 "Hg10 mi
1:53 AM53 °FMostly cloudy.5 mph89%30.03 "Hg10 mi
12:53 AM53 °FPartly cloudy.3 mph89%30.03 "Hg10 mi
11:53 PM
Oct 23
54 °FMostly cloudy.No wind86%30.00 "Hg10 mi
10:53 PM54 °FMostly cloudy.5 mph90%29.99 "Hg10 mi
9:53 PM53 °FPassing clouds.5 mph89%29.98 "Hg10 mi
Weather by CustomWeather, © 2014

See weather overviewHow to use our weather pages